| time (UTC) | temp C | wind direction | speed KPH | gust KPH | rain 1hr cm | rain 24hr cm | rain mn cm | humidity % | barometer mb |
| 20260507095709 | 10 | 335 | 3.2 | 8.0 | 0.00 | 0.00 | 0.00 | 83 | 1021.4 |
| 20260507094830 | 10 | 330 | 3.2 | 12.9 | 0.00 | 0.00 | 0.00 | 83 | 1021.5 |
| 20260507093304 | 10 | 340 | 4.8 | 11.3 | 0.00 | 0.00 | 0.00 | 83 | 1021.6 |
| 20260507093123 | 10 | 340 | 4.8 | 11.3 | 0.00 | 0.00 | 0.00 | 83 | 1021.6 |
| 20260507092240 | 11 | 328 | 3.2 | 11.3 | 0.00 | 0.00 | 0.00 | 83 | 1021.7 |
| 20260507091404 | 11 | 300 | 1.6 | 4.8 | 0.00 | 0.00 | 0.00 | 84 | 1021.7 |
| 20260507090555 | 11 | 327 | 1.6 | 8.0 | 0.00 | 0.00 | 0.00 | 84 | 1021.7 |
| 20260507085559 | 11 | 321 | 1.6 | 8.0 | 0.00 | 0.00 | 0.00 | 84 | 1021.7 |
| 20260507084605 | 11 | 325 | 3.2 | 8.0 | 0.00 | 0.00 | 0.00 | 84 | 1021.7 |
| 20260507083655 | 11 | 336 | 1.6 | 6.4 | 0.00 | 0.00 | 0.00 | 84 | 1021.8 |
| 20260507082745 | 11 | 336 | 3.2 | 8.0 | 0.00 | 0.00 | 0.00 | 84 | 1021.8 |
| 20260507081914 | 11 | 1 | 1.6 | 6.4 | 0.00 | 0.00 | 0.00 | 85 | 1021.7 |
| 20260507080035 | 11 | 301 | 0.0 | 3.2 | 0.00 | 0.00 | 0.00 | 85 | 1021.8 |
| 20260507075229 | 11 | 333 | 3.2 | 8.0 | 0.00 | 0.00 | 0.00 | 85 | |
| 20260507075225 | 11 | 333 | 3.2 | 8.0 | 0.00 | 0.00 | 0.00 | 85 | 1021.8 |
| 20260507074350 | 11 | 336 | 3.2 | 9.7 | 0.00 | 0.00 | 0.00 | 85 | 1021.8 |
| 20260507073454 | 11 | 353 | 3.2 | 8.0 | 0.00 | 0.00 | 0.00 | 85 | 1021.7 |
| 20260507072635 | 11 | 335 | 4.8 | 16.1 | 0.00 | 0.00 | 0.00 | 85 | 1021.7 |
| 20260507071747 | 11 | 324 | 3.2 | 11.3 | 0.00 | 0.00 | 0.00 | 85 | 1021.6 |
| 20260507070750 | 11 | 347 | 1.6 | 11.3 | 0.00 | 0.00 | 0.00 | 85 | 1021.6 |
| 20260507065020 | 11 | 357 | 3.2 | 12.9 | 0.00 | 0.00 | 0.00 | 85 | 1021.6 |
| 20260507064113 | 11 | 331 | 3.2 | 12.9 | 0.00 | 0.00 | 0.00 | 84 | 1021.6 |
| 20260507063313 | 11 | 348 | 6.4 | 19.3 | 0.00 | 0.00 | 0.00 | 84 | 1021.6 |
| 20260507062334 | 11 | 347 | 8.0 | 16.1 | 0.00 | 0.00 | 0.00 | 84 | 1021.6 |
| 20260507061346 | 11 | 341 | 6.4 | 0.0 | 0.00 | 0.00 | 0.00 | 84 | 1021.5 |
| 20260507061344 | 11 | 341 | 6.4 | 19.3 | 0.00 | 0.00 | 0.00 | 84 | 1021.5 |
| 20260507060547 | 11 | 337 | 4.8 | 11.3 | 0.00 | 0.00 | 0.00 | 84 | 1021.6 |
| 20260507055735 | 11 | 348 | 6.4 | 16.1 | 0.00 | 0.00 | 0.00 | 84 | 1021.6 |
| 20260507054738 | 11 | 343 | 8.0 | 16.1 | 0.00 | 0.00 | 0.00 | 84 | 1021.6 |
| 20260507053835 | 11 | 343 | 9.7 | 22.5 | 0.00 | 0.00 | 0.00 | 83 | 1021.5 |
| 20260507052920 | 12 | 340 | 9.7 | 24.1 | 0.00 | 0.00 | 0.00 | 83 | 1021.4 |
| 20260507051032 | 12 | 352 | 8.0 | 19.3 | 0.00 | 0.00 | 0.00 | 83 | 1021.5 |
| 20260507050115 | 12 | 350 | 8.0 | 20.9 | 0.00 | 0.00 | 0.00 | 82 | 1021.6 |
| 20260507045226 | 12 | 351 | 6.4 | 20.9 | 0.00 | 0.00 | 0.00 | 82 | 1021.6 |
| 20260507044425 | 12 | 352 | 11.3 | 19.3 | 0.00 | 0.00 | 0.00 | 82 | 1021.6 |
| 20260507043445 | 12 | 356 | 9.7 | 16.1 | 0.00 | 0.00 | 0.00 | 82 | 1021.4 |
| 20260507042643 | 12 | 347 | 8.0 | 19.3 | 0.00 | 0.00 | 0.00 | 81 | 1021.3 |
| 20260507041707 | 13 | 348 | 11.3 | 20.9 | 0.00 | 0.00 | 0.00 | 81 | 1021.3 |
| 20260507040754 | 13 | 335 | 8.0 | 17.7 | 0.00 | 0.00 | 0.00 | 81 | 1021.2 |
| 20260507035815 | 13 | 350 | 4.8 | 11.3 | 0.00 | 0.00 | 0.00 | 81 | 1021.0 |
| 20260507034918 | 13 | 349 | 6.4 | 16.1 | 0.00 | 0.00 | 0.00 | 81 | 1020.8 |
| 20260507033154 | 13 | 348 | 4.8 | 19.3 | 0.00 | 0.00 | 0.00 | 81 | 1020.7 |
| 20260507032250 | 13 | 333 | 8.0 | 14.5 | 0.00 | 0.00 | 0.00 | 81 | 1020.5 |
| 20260507031405 | 13 | 341 | 4.8 | 12.9 | 0.00 | 0.00 | 0.00 | 81 | 1020.4 |
| 20260507030432 | 14 | 348 | 6.4 | 14.5 | 0.00 | 0.00 | 0.00 | 80 | 1020.3 |
| 20260507025617 | 14 | 2 | 6.4 | 14.5 | 0.00 | 0.00 | 0.00 | 80 | 1020.2 |
| 20260507024645 | 15 | 6 | 6.4 | 14.5 | 0.00 | 0.00 | 0.00 | 79 | 1020.2 |
| 20260507023800 | 15 | 356 | 6.4 | 14.5 | 0.00 | 0.00 | 0.00 | 78 | 1020.2 |
| 20260507022803 | 16 | 7 | 6.4 | 12.9 | 0.00 | 0.00 | 0.00 | 76 | 1020.1 |
| 20260507021048 | 16 | 344 | 6.4 | 12.9 | 0.00 | 0.00 | 0.00 | 76 | 1020.2 |
| 20260507020125 | 16 | 342 | 6.4 | 12.9 | 0.00 | 0.00 | 0.00 | 76 | 1020.3 |
| 20260507015246 | 16 | 13 | 6.4 | 16.1 | 0.00 | 0.00 | 0.00 | 76 | 1020.3 |
| 20260507014310 | 16 | 339 | 6.4 | 16.1 | 0.00 | 0.00 | 0.00 | 75 | 1020.4 |
| 20260507013440 | 17 | 350 | 4.8 | 17.7 | 0.00 | 0.00 | 0.00 | 75 | 1020.3 |
| 20260507012640 | 17 | 341 | 6.4 | 14.5 | 0.00 | 0.00 | 0.00 | 75 | 1020.2 |
| 20260507011807 | 17 | 339 | 6.4 | 16.1 | 0.00 | 0.00 | 0.00 | 74 | 1020.3 |
| 20260507010945 | 17 | 330 | 6.4 | 12.9 | 0.00 | 0.00 | 0.00 | 75 | 1020.3 |
| 20260507005039 | 18 | 349 | 6.4 | 11.3 | 0.00 | 0.00 | 0.00 | 75 | 1020.2 |
| 20260507004135 | 18 | 352 | 4.8 | 12.9 | 0.00 | 0.00 | 0.00 | 74 | 1020.2 |
| 20260507003315 | 18 | 352 | 4.8 | 11.3 | 0.00 | 0.00 | 0.00 | 72 | 1020.2 |
| 20260507002319 | 18 | 38 | 3.2 | 9.7 | 0.00 | 0.00 | 0.00 | 72 | 1020.2 |
| 20260507001412 | 18 | 35 | 3.2 | 9.7 | 0.00 | 0.00 | 0.00 | 71 | 1020.2 |
| 20260507000537 | 18 | 329 | 4.8 | 9.7 | 0.00 | 0.00 | 0.00 | 70 | 1020.2 |
| 20260506235634 | 18 | 322 | 3.2 | 6.4 | 0.00 | 0.00 | 0.00 | 70 | 1020.1 |
| 20260506234820 | 19 | 355 | 3.2 | 11.3 | 0.00 | 0.00 | 0.00 | 69 | 1020.2 |
| 20260506233045 | 19 | 249 | 0.0 | 3.2 | 0.00 | 0.00 | 0.00 | 70 | 1020.2 |
| 20260506232108 | 18 | 248 | 1.6 | 3.2 | 0.00 | 0.00 | 0.00 | 71 | 1020.3 |
| 20260506231245 | 18 | 320 | 1.6 | 6.4 | 0.00 | 0.00 | 0.00 | 72 | 1020.4 |
| 20260506230342 | 18 | 276 | 0.0 | 1.6 | 0.00 | 0.00 | 0.00 | 71 | 1020.6 |
| 20260506225442 | 17 | 23 | 0.0 | 1.6 | 0.00 | 0.00 | 0.00 | 74 | 1020.7 |
| 20260506225420 | 17 | 23 | 0.0 | 1.6 | 0.00 | 0.00 | 0.00 | 74 | 1020.7 |
| 20260506224530 | 17 | 315 | 1.6 | 8.0 | 0.00 | 0.00 | 0.00 | 73 | 1020.7 |
| 20260506223725 | 17 | 326 | 1.6 | 4.8 | 0.00 | 0.00 | 0.00 | 74 | 1020.8 |
| 20260506222915 | 17 | 329 | 3.2 | 6.4 | 0.00 | 0.00 | 0.00 | 76 | 1020.9 |
| 20260506221115 | 17 | 290 | 3.2 | 6.4 | 0.00 | 0.00 | 0.00 | 76 | 1020.9 |
| 20260506220223 | 17 | 307 | 3.2 | 9.7 | 0.00 | 0.00 | 0.00 | 76 | 1020.8 |
| 20260506215419 | 17 | 317 | 1.6 | 6.4 | 0.00 | 0.00 | 0.00 | 75 | 1020.7 |
| 20260506214454 | 17 | 41 | 1.6 | 4.8 | 0.00 | 0.00 | 0.00 | 76 | 1020.9 |
| 20260506213527 | 17 | 38 | 1.6 | 6.4 | 0.00 | 0.00 | 0.00 | 76 | 1021.1 |
| 20260506212608 | 17 | 326 | 1.6 | 4.8 | 0.00 | 0.00 | 0.00 | 77 | 1021.3 |
| 20260506211630 | 17 | 295 | 1.6 | 4.8 | 0.00 | 0.00 | 0.00 | 77 | 1021.3 |
| 20260506210739 | 16 | 174 | 0.0 | 3.2 | 0.00 | 0.00 | 0.00 | 78 | 1021.3 |
| 20260506205040 | 16 | 124 | 1.6 | 4.8 | 0.00 | 0.00 | 0.00 | 78 | 1021.2 |
| 20260506204105 | 16 | 216 | 1.6 | 4.8 | 0.00 | 0.00 | 0.00 | 80 | 1021.2 |
| 20260506203135 | 16 | 217 | 1.6 | 6.4 | 0.00 | 0.00 | 0.00 | 81 | 1021.2 |
| 20260506202157 | 15 | 260 | 1.6 | 8.0 | 0.00 | 0.00 | 0.00 | 82 | 1021.3 |
| 20260506201209 | 15 | 226 | 1.6 | 6.4 | 0.00 | 0.00 | 0.00 | 82 | 1021.4 |
| 20260506200405 | 15 | 276 | 3.2 | 8.0 | 0.00 | 0.00 | 0.00 | 82 | 1021.5 |
| 20260506195518 | 15 | 218 | 1.6 | 6.4 | 0.00 | 0.00 | 0.00 | 82 | 1021.6 |
| 20260506194529 | 15 | 293 | 3.2 | 9.7 | 0.00 | 0.00 | 0.00 | 82 | 1021.7 |
| 20260506193538 | 15 | 258 | 3.2 | 8.0 | 0.00 | 0.00 | 0.00 | 81 | 1021.6 |
| 20260506192713 | 15 | 321 | 1.6 | 6.4 | 0.00 | 0.00 | 0.00 | 81 | 1021.4 |
| 20260506191015 | 16 | 221 | 3.2 | 8.0 | 0.00 | 0.00 | 0.00 | 81 | 1021.5 |
| 20260506190115 | 15 | 133 | 1.6 | 8.0 | 0.00 | 0.00 | 0.00 | 81 | 1021.5 |
| 20260506185245 | 15 | 187 | 1.6 | 6.4 | 0.00 | 0.00 | 0.00 | 83 | 1021.4 |
| 20260506184357 | 15 | 159 | 1.6 | 4.8 | 0.00 | 0.00 | 0.00 | 85 | 1021.4 |
| 20260506183514 | 14 | 206 | 0.0 | 3.2 | 0.00 | 0.00 | 0.00 | 86 | 1021.5 |
| 20260506182530 | 14 | 214 | 0.0 | 3.2 | 0.00 | 0.00 | 0.00 | 86 | 1021.4 |
| 20260506181710 | 13 | 0.0 | 0.0 | 0.00 | 0.00 | 0.00 | 87 | 1021.5 | |
| 20260506180835 | 13 | 218 | 0.0 | 3.2 | 0.00 | 0.00 | 0.00 | 87 | 1021.5 |
| 20260506175130 | 13 | 288 | 0.0 | 3.2 | 0.00 | 0.00 | 0.00 | 87 | 1021.4 |
| 20260506174150 | 13 | 253 | 0.0 | 3.2 | 0.00 | 0.00 | 0.00 | 86 | 1021.2 |
| 20260506173228 | 13 | 258 | 1.6 | 4.8 | 0.00 | 0.00 | 0.00 | 86 | 1021.1 |
| 20260506172243 | 13 | 216 | 0.0 | 1.6 | 0.00 | 0.00 | 0.00 | 87 | 1021.0 |
| 20260506171348 | 13 | 295 | 1.6 | 4.8 | 0.00 | 0.00 | 0.00 | 87 | 1021.2 |
| 20260506170415 | 13 | 313 | 1.6 | 6.4 | 0.00 | 0.00 | 0.00 | 87 | 1021.2 |
| 20260506165615 | 13 | 298 | 1.6 | 4.8 | 0.00 | 0.00 | 0.00 | 86 | 1021.0 |
| 20260506164809 | 13 | 325 | 1.6 | 6.4 | 0.00 | 0.00 | 0.00 | 87 | 1021.1 |
| 20260506163818 | 13 | 343 | 0.0 | 3.2 | 0.00 | 0.00 | 0.00 | 87 | 1020.8 |
| 20260506162931 | 13 | 249 | 0.0 | 3.2 | 0.00 | 0.00 | 0.00 | 87 | 1020.7 |
| 20260506161105 | 13 | 110 | 0.0 | 4.8 | 0.00 | 0.00 | 0.00 | 87 | 1020.6 |
| 20260506160307 | 12 | 78 | 0.0 | 6.4 | 0.00 | 0.00 | 0.00 | 89 | 1020.5 |
| 20260506155307 | 12 | 103 | 4.8 | 8.0 | 0.00 | 0.00 | 0.00 | 89 | 1020.1 |
| 20260506154435 | 12 | 0 | 0.0 | 6.4 | 0.00 | 0.00 | 0.00 | 89 | 1020.8 |
| 20260506153555 | 12 | 347 | 1.6 | 8.0 | 0.00 | 0.00 | 0.00 | 89 | 1021.0 |
| 20260506152756 | 12 | 7 | 1.6 | 6.4 | 0.00 | 0.00 | 0.00 | 90 | 1021.1 |
| 20260506151805 | 12 | 340 | 4.8 | 11.3 | 0.00 | 0.00 | 0.00 | 90 | 1021.0 |
| 20260506150927 | 12 | 341 | 6.4 | 11.3 | 0.00 | 0.00 | 0.00 | 90 | 1020.8 |
| 20260506145059 | 12 | 333 | 3.2 | 11.3 | 0.00 | 0.00 | 0.00 | 90 | 1020.8 |
| 20260506144100 | 12 | 335 | 4.8 | 9.7 | 0.00 | 0.00 | 0.00 | 90 | 1020.6 |
| 20260506143104 | 12 | 11 | 1.6 | 4.8 | 0.00 | 0.00 | 0.00 | 90 | 1020.3 |
| 20260506142150 | 12 | 331 | 0.0 | 3.2 | 0.00 | 0.00 | 0.00 | 90 | 1020.1 |
| 20260506141200 | 12 | 342 | 0.0 | 3.2 | 0.00 | 0.00 | 0.00 | 90 | 1020.2 |
| 20260506140320 | 12 | 0.0 | 0.0 | 0.00 | 0.00 | 0.00 | 90 | 1020.2 | |
| 20260506135322 | 12 | 0.0 | 0.0 | 0.00 | 0.00 | 0.00 | 90 | 1020.1 | |
| 20260506134405 | 12 | 0.0 | 0.0 | 0.00 | 0.00 | 0.00 | 90 | 1019.9 | |
| 20260506133504 | 12 | 0.0 | 0.0 | 0.00 | 0.00 | 0.00 | 91 | 1019.9 | |
| 20260506132550 | 12 | 0.0 | 0.0 | 0.00 | 0.00 | 0.00 | 91 | 1019.7 | |
| 20260506131727 | 12 | 0.0 | 0.0 | 0.00 | 0.00 | 0.00 | 90 | 1019.7 | |
| 20260506130854 | 12 | 0.0 | 0.0 | 0.00 | 0.00 | 0.00 | 90 | 1019.5 | |
| 20260506125855 | 12 | 0.0 | 0.0 | 0.00 | 0.00 | 0.00 | 90 | 1019.5 | |
| 20260506124955 | 12 | 0.0 | 0.0 | 0.00 | 0.00 | 0.00 | 90 | 1019.5 | |
| 20260506123226 | 12 | 335 | 0.0 | 6.4 | 0.00 | 0.00 | 0.00 | 90 | 1019.6 |
| 20260506123154 | 12 | 335 | 0.0 | 6.4 | 0.00 | 0.00 | 0.00 | 90 | 1019.6 |
| 20260506122223 | 12 | 331 | 3.2 | 8.0 | 0.00 | 0.00 | 0.00 | 90 | 1019.5 |
| 20260506121305 | 12 | 330 | 3.2 | 9.7 | 0.00 | 0.00 | 0.00 | 90 | 1019.5 |
| 20260506120409 | 12 | 331 | 3.2 | 9.7 | 0.00 | 0.00 | 0.00 | 89 | 1019.3 |
| 20260506115419 | 12 | 340 | 4.8 | 9.7 | 0.00 | 0.00 | 0.00 | 89 | 1019.2 |
| 20260506114455 | 12 | 332 | 4.8 | 12.9 | 0.00 | 0.00 | 0.00 | 89 | 1019.1 |
| 20260506113614 | 12 | 337 | 4.8 | 9.7 | 0.00 | 0.00 | 0.00 | 89 | 1019.1 |
| 20260506112723 | 12 | 332 | 3.2 | 9.7 | 0.00 | 0.00 | 0.00 | 89 | 1019.0 |
| 20260506111730 | 12 | 322 | 3.2 | 8.0 | 0.00 | 0.00 | 0.00 | 89 | 1018.9 |
| 20260506110905 | 12 | 319 | 3.2 | 9.7 | 0.00 | 0.00 | 0.00 | 89 | 1018.8 |
| 20260506105049 | 12 | 328 | 3.2 | 8.0 | 0.00 | 0.00 | 0.00 | 89 | 1018.6 |
| 20260506104205 | 12 | 333 | 1.6 | 6.4 | 0.00 | 0.00 | 0.00 | 89 | 1018.5 |
| 20260506103355 | 12 | 340 | 1.6 | 6.4 | 0.00 | 0.00 | 0.00 | 88 | 1018.4 |
| 20260506102455 | 12 | 349 | 0.0 | 3.2 | 0.00 | 0.00 | 0.00 | 88 | 1018.3 |
| 20260506101639 | 12 | 340 | 0.0 | 3.2 | 0.00 | 0.00 | 0.00 | 88 | 1018.2 |
| 20260506101545 | 12 | 340 | 0.0 | 3.2 | 0.00 | 0.00 | 0.00 | 88 | 1018.2 |
| 20260506100610 | 13 | 12 | 0.0 | 3.2 | 0.00 | 0.00 | 0.00 | 88 | 1018.2 |